Location: Geroldsau
(48.7259°N, 8.2466°E)
Time: 08:07:03
(UTC+00:00)

Meteor 2-6 Rocket - Pass Details

Date: 20 June 2021
Orbit: 805 x 915 km, 81.3° (Epoch: 26 July)

Event Time Altitude Azimuth Distance (km) Brightness Sun altitude
Rises 02:31:03 0° 347° (NNW) 3,552 8.0 -7.1°
Reaches altitude 10° 02:33:33 10° 347° (NNW) 2,597 7.3 -6.9°
Maximum altitude 02:39:30 83° 260° (W) 903 4.3 -6.2°
Drops below altitude 10° 02:45:14 10° 174° (S) 2,515 6.3 -5.6°
Sets 02:47:38 0° 173° (S) 3,432 7.0 -5.3°
